Regional Weather Roundup
Issued by NWS

Home | Current Version | Previous Version | Text Only | Print | Product List | Glossary Off
Versions: 1 2 3 4 5 6 7 8 9 10 11 12 13 14 15 16 17 18 19 20 21 22 23 24 25 26 27 28 29 30 31 32 33 34 35 36 37 38 39 40 41 42 43 44 45 46 47 48 49 50

171
ASUS44 KMEG 250700
RWRTN
TENNESSEE HOURLY STATE WEATHER ROUNDUP
NATIONAL WEATHER SERVICE MEMPHIS TN
100 AM CST SAT FEB 25 2017

TNZ002-004-019-021-049-052-054-088>092-250800-
WEST TENNESSEE

CITY           SKY/WX    TMP DP  RH WIND       PRES   REMARKS
MEMPHIS INTL   CLEAR     48  32  53 NW13G25   29.92R
NWS MEMPHIS      N/A     49 N/A N/A MISG        N/A
JACKSON        PTCLDY    50  35  56 NW14      29.87R
UNION CITY     CLEAR     45  25  45 NW17      29.85R
PARIS          CLEAR     45  30  57 W14       29.82R
$$

TNZ008-025-027-028-033-062-065-066-250800-
NORTH MIDDLE TENNESSEE

CITY           SKY/WX    TMP DP  RH WIND       PRES   REMARKS
NASHVILLE      CLOUDY    60  40  47 W12G21    29.76R
CLARKSVILLE    CLOUDY    53  31  42 W14G22    29.78R
SMYRNA         CLOUDY    59  44  57 NW14      29.76R
CROSSVILLE     LGT RAIN  56  55  97 S5        29.71S
$$

TNZ061-075-076-078-094-096-097-250800-
SOUTH MIDDLE TENNESSEE

CITY           SKY/WX    TMP DP  RH WIND       PRES   REMARKS
TULLAHOMA      MOCLDY    57  57 100 W15       29.75R
WINCHESTER     CLOUDY    59  57  94 CALM      29.74R
MCMINNVILLE    CLOUDY    59  59 100 SW6       29.71S
COLUMBIA       CLOUDY    55  39  54 W8        29.76R
SHELBYVILLE    CLOUDY    59  52  77 W14       29.76R
$$

TNZ017-018-042-046-047-250800-
NORTHEAST TENNESSEE

CITY           SKY/WX    TMP DP  RH WIND       PRES   REMARKS
TRI CITIES     CLOUDY    65  50  58 S8        29.70F
$$

TNZ012-013-036-069-073-074-250800-
CENTRAL EAST TENNESSEE

CITY           SKY/WX    TMP DP  RH WIND       PRES   REMARKS
KNOXVILLE      LGT RAIN  66  54  65 SW16      29.66R
OAK RIDGE      MOCLDY    63  57  81 CALM      29.68R
GATLINBURG     PTCLDY    70  48  46 S3        29.64F
$$

TNZ083-085-099-250800-
SOUTHEAST TENNESSEE

CITY           SKY/WX    TMP DP  RH WIND       PRES   REMARKS
CHATTANOOGA    MOCLDY    68  54  60 S10       29.69S
$$

SKY/WX REPORTED AS FAIR MEANS FEW OR NO CLOUDS BELOW
12 THOUSAND FEET.





USA.gov is the U.S. government's official web portal to all federal, state and local government web resources and services.